Back to catalog

STARLINK-35489

AliveCommunicationsVLEO
NORAD 65857·PAYLOAD·🇺🇸 United States

Launched Oct 3, 2025 from Vandenberg Space Force Base

Loading…

Next Passes (next 24 hours)

TLE

FreshSource: CelesTrak SupGP

Epoch: Sep 14, 2026, 15:39 UTC

1 65857C 25223D   26257.65256944  .00031796  00000+0  93923-3 0  2579
2 65857  53.1568 132.9970 0001363 102.8152 327.1301 15.34381165    19

Track STARLINK-35489 in real time with AllMySat

Download on the App Store